Voltar ao catálogo

STARLINK-2435

AtivoComunicaçõesVLEO
NORAD 47843·PAYLOAD·🇺🇸 United States

Lançado Mar 11, 2021 de Cape Canaveral Space Force Station

Loading…

Próximas Passagens (próximas 24 horas)

TLE

AtualizadoSource: CelesTrak SupGP

Época: Sep 14, 2026, 20:01 UTC

1 47843C 21018BJ  26257.83451389 -.00013185  00000+0 -42409-3 0  2579
2 47843  53.1577  95.0610 0001270  80.9546 336.3407 15.31700929    13

Acompanhe STARLINK-2435 em tempo real com AllMySat

Download on the App Store